#timestamp,LO_Frequency,Hit,StdDev 
1676710815.5,286047005.2,N
1676710835.4,286047003.9,N
1676710855.2,286046999.5,N
1676710875.0,286046996.9,N
1676710875.9,286046996.9,N
1676710895.8,286046997.8,N
1676710915.6,286046991.9,N
1676710935.4,286046991.8,N
1676710955.3,286046988.9,N
1676710975.1,286046991.4,N
1676710995.9,286046989.3,N
1676711015.7,286046990.7,N
1676711035.5,286046995.3,N
1676711055.4,286047000.8,N
1676711075.2,286047005.0,N
1676711095.0,286047006.0,N
1676711095.9,286047006.0,N
1676711115.8,286047003.9,N
1676711135.6,286047000.8,N
1676711155.5,286047003.6,N
1676711175.3,286047009.6,N
1676711195.1,286047014.1,N
1676711215.9,286047019.9,N
1676711235.7,286047020.9,N
1676711255.6,286047014.1,N
1676711275.4,286047014.6,N
1676711295.2,286047009.6,N
1676711315.1,286047007.5,N
1676711316.0,286047007.5,N
1676711335.8,286047000.2,N
1676711355.6,286046998.4,N
1676711375.5,286046995.6,N
1676711395.3,286046996.0,N
1676711415.2,286046996.1,N
1676711435.9,286046993.5,N
1676711455.7,286046993.8,N
1676711475.6,286046992.6,N
1676711495.4,286046990.7,N
1676711515.2,286046990.7,N
1676711535.1,286046996.0,N
1676711536.0,286046996.0,N
1676711555.8,286046990.8,N
1676711575.7,286046988.2,N
1676711595.5,286046986.5,N
1676711615.3,286046984.0,N
1676711635.2,286046980.5,N
1676711655.0,286046979.6,N
1676711655.9,286046979.6,N
1676711675.7,286046977.5,N
1676711695.6,286046976.3,N
1676711715.4,286046977.6,N
1676711735.3,286046996.0,N
1676711755.1,286046999.2,N
1676711756.0,286046999.2,N
1676711775.8,286047004.2,N
1676711795.7,286047004.6,N
1676711815.5,286047013.8,N
1676711835.3,286047011.3,N
1676711855.2,286047011.6,N
1676711875.0,286047010.6,N
1676711875.9,286047010.6,N
1676711895.8,286047012.0,N
1676711915.6,286047016.9,N
1676711935.4,286047012.5,N
1676711955.3,286047012.2,N
1676711975.1,286047007.1,N
1676711995.8,286046998.4,N
1676712015.7,286046996.5,N
1676712035.5,286046999.5,N
1676712055.4,286046993.9,N
1676712075.2,286046994.0,N
1676712095.0,286047000.4,N
1676712095.9,286047000.4,N
1676712115.8,286047005.9,N
1676712135.6,286047001.9,N
1676712155.4,286046995.0,N
1676712175.3,286046994.5,N
1676712195.1,286046992.8,N
1676712215.9,286046990.7,N
1676712235.7,286046989.5,N
1676712255.5,286046987.0,N
1676712275.4,286046987.3,N
1676712295.2,286046984.5,N
1676712315.0,286046983.3,N
1676712315.9,286046983.3,N
1676712335.8,286046980.7,N
1676712355.6,286046977.8,N
1676712375.5,286046978.7,N
1676712395.3,286046976.2,N
1676712415.1,286046979.7,N
1676712435.9,286046986.7,N
1676712455.7,286046989.6,N
1676712475.5,286046989.9,N
1676712495.4,286046990.8,N
1676712515.2,286046990.9,N
1676712535.1,286046993.0,N
1676712536.0,286046993.0,N
1676712555.8,286046995.2,N
1676712575.6,286046996.6,N
1676712595.5,286047004.7,N
1676712615.3,286047015.7,N
1676712635.1,286047024.7,N
1676712655.9,286047028.4,N
1676712675.7,286047032.2,N
1676712695.6,286047035.9,N
1676712715.4,286047033.9,N
1676712735.2,286047025.5,N
1676712755.1,286047019.0,N
1676712756.0,286047019.0,N
1676712775.8,286047017.6,N
1676712795.6,286047014.5,N
1676712815.5,286047010.7,N
1676712835.3,286047009.3,N
1676712855.2,286047010.9,N
1676712875.9,286047009.9,N
1676712895.7,286047007.0,N
1676712915.6,286047006.0,N
1676712935.4,286047003.2,N
1676712955.2,286047001.3,N
1676712975.1,286047007.1,N
1676712976.0,286047007.1,N
1676712995.8,286047007.3,N
1676713015.7,286047006.5,N
1676713035.5,286047011.4,N
1676713055.3,286047014.9,N
1676713075.2,286047009.3,N
1676713095.0,286047006.7,N
1676713095.9,286047006.7,N
1676713115.7,286047006.4,N
1676713135.6,286047006.9,N
1676713155.4,286047003.3,N
1676713175.3,286047001.1,N
1676713195.1,286046997.4,N
1676713215.9,286046992.2,N
1676713235.7,286046994.3,N
1676713255.5,286046995.2,N
1676713275.4,286046999.6,N
1676713295.2,286047004.6,N
1676713315.0,286047016.8,N
1676713315.9,286047016.8,N
1676713335.8,286047027.6,Y
1676713355.6,286047031.1,P
1676713375.5,286047027.5,N
1676713395.3,286047024.5,N
1676713415.1,286047019.3,N
1676713435.9,286047016.4,N
1676713455.7,286047008.9,N
1676713475.5,286047002.1,N
1676713495.4,286046999.1,N
1676713515.2,286046996.9,N
1676713535.1,286046995.8,N
1676713536.0,286046995.8,N
1676713555.8,286046995.7,N
1676713575.7,286046997.0,N
1676713595.5,286046997.6,N
1676713615.3,286046996.2,N
1676713635.2,286046993.3,N
1676713655.9,286046994.9,N
1676713675.7,286046998.1,N
1676713695.6,286047001.5,N
1676713715.4,286047000.8,N
1676713735.2,286046997.2,N
1676713755.1,286046995.9,N
1676713756.0,286046995.9,N
1676713775.8,286046998.1,N
1676713795.7,286046998.8,N
1676713815.5,286046993.8,N
1676713835.3,286046990.7,N
1676713855.2,286046986.9,N
1676713875.0,286046986.9,N
1676713875.9,286046986.3,N
1676713895.7,286046988.5,N
1676713915.6,286046988.9,N
1676713935.4,286046987.7,N
1676713955.3,286046988.4,N
1676713975.1,286046990.9,N
1676713976.0,286046990.9,N
1676713995.8,286046986.9,N
1676714015.7,286046987.1,N
1676714035.5,286046992.3,N
1676714055.3,286046993.0,N
1676714075.2,286046993.5,N
1676714095.0,286046995.0,N
1676714095.9,286046995.0,N
1676714115.8,286046995.5,N
1676714135.6,286046996.1,N
1676714155.4,286046995.4,N
1676714175.3,286047001.3,N
1676714195.1,286047010.0,N
1676714215.8,286047013.7,N
1676714235.7,286047014.0,N
1676714255.5,286047010.4,N
1676714275.4,286047004.8,N
1676714295.2,286047005.6,N
1676714315.0,286047004.0,N
1676714315.9,286047004.0,N
1676714335.8,286046997.9,N
1676714355.6,286046993.8,N
1676714375.4,286046991.5,N
1676714395.3,286046988.5,N
